Orbital Elements at Epoch 2459000.5 (2020-May-31.0) TDB
Reference: JPL 17 (heliocentric ecliptic J2000)
Element | Value | Uncertainty (1-sigma) | Units |
e | .1681651615968019 | 3.9365e-08 | |
a | 3.179134474090889 | 2.0636e-08 | au |
q | 2.644514811517431 | 1.2006e-07 | au |
i | 4.555262188217775 | 4.8068e-06 | deg |
node | 25.29601035308813 | 5.3914e-05 | deg |
peri | 67.31711768848942 | 5.5959e-05 | deg |
M | 156.7013990610307 | 1.6613e-05 | deg |
tp | 2458099.277246836269 (2017-Dec-11.77724684) | 9.0836e-05 | TDB |
period | 2070.435829437508 5.67 | 2.0159e-05 5.519e-08 | d yr |
n | .1738764345561988 | 1.693e-09 | deg/d |
Q | 3.713754136664347 | 2.4106e-08 | au |
|
| | Orbit Determination Parameters
Additional Information
|